Regional Weather Roundup
Issued by NWS Wakefield, VA

Home | Current Version | Previous Version | Graphics & Text | Print | Product List | Glossary On
Versions: 1 2 3 4 5 6 7 8 9 10 11 12 13 14 15 16 17 18 19 20 21 22 23 24 25 26 27
000
ASUS41 KAKQ 221814
RWRAKQ

REGIONAL WEATHER ROUNDUP
NATIONAL WEATHER SERVICE WAKEFIELD VA
200 PM EDT TUE MAY 22 2018

Note: "fair" indicates few or no clouds below 12,000 feet with no
significant weather and/or obstructions to visibility. * = Denotes
station may not report precipitation (e.g., rain,snow,etc.),
thunder or fog.

VAZ042-051-052>054-056-221900-
NORTHERN VIRGINIA

CITY           SKY/WX    TMP DP  RH WIND       PRES   REMARKS
WASH NATIONAL  CLOUDY    73  66  78 S9        30.05F
DULLES         PTSUNNY   77  70  79 S9        30.04F
FORT BELVOIR   PTSUNNY   77  68  73 SE8       30.04F
QUANTICO       CLOUDY    76  72  87 S8        30.04F
FREDERICKSBRG* PTSUNNY   81  70  68 SW10      30.03F
STAFFORD*      PTSUNNY   81  71  72 SW6       30.08F
WARRENTON      PTSUNNY   81  67  62 SW9       30.03F
CULPEPER*      FAIR      81  68  66 SW8       30.04F
MANASSAS*      PTSUNNY   80  70  71 S9        30.04F
LEESBURG*      FAIR      79  72  78 S7        30.05F
WINCHESTER     FAIR      77  66  69 S5        30.05F
FRONT ROYAL*   FAIR      79  70  73 S5        30.03F
LURAY*         MOCLDY    81  66  61 S3        30.03F
$$

VAZ048-049-060>072-079>083-221900-
CENTRAL AND SOUTH CENTRAL VIRGINIA

CITY           SKY/WX    TMP DP  RH WIND       PRES   REMARKS
RICHMOND       PTSUNNY   80  69  69 S9        30.06F
CHESTERFIELD*  CLOUDY    80  70  71 SW8       30.06F
PETERSBURG*    PTSUNNY   80  68  66 SW8       30.08F
HANOVER        PTSUNNY   81  68  64 SW8       30.06F
TAPPAHANNOCK*  CLOUDY    79  70  74 S7        30.07F
QUINTON*       CLOUDY    78  70  76 S6        30.07F
CHARLOTTSVILLE FAIR      82  69  64 S9        30.04F
GORDONSVILLE*  MOCLDY    80  71  74 S7        30.04F
ORANGE*        FAIR      81  68  65 SW9       30.03F
LOUISA*        PTSUNNY   80  69  68 S7        30.09F
BUMPASS*       FAIR      80  69  69 CALM      30.05F
FARMVILLE*     PTSUNNY   82  82  98 S8        30.05F HX  95
CREWE*         MOCLDY    82  70  66 SW5       30.06F
FORT PICKETT*  MOCLDY    81  71  73 W6G16     30.07F
CHASE CITY*    MOCLDY    82  69  63 W3        30.08F
CLARKSVILLE*   CLOUDY    79  70  73 S3        30.07F
SOUTH HILL*    FAIR      80  73  78 S5        30.14F
LAWRENCEVILLE* MOCLDY    81  70  71 SW3       30.07F
EMPORIA*       FAIR      81  68  65 SW6       30.09F
$$

VAZ088>098-221900-
SOUTHEAST VIRGINIA

CITY           SKY/WX    TMP DP  RH WIND       PRES   REMARKS
NORFOLK        PTSUNNY   79  71  76 NE6       30.06F
VIRGINIA BEACH PTSUNNY   82  71  69 SW8       30.06F
NORFOLK NAVAL  PTSUNNY   80  69  69 VRB6      30.08F
WEST POINT*    PTSUNNY   79  69  73 SW6       30.08F
SALUDA*        MOCLDY    78  72  80 SW5       30.06F
NEWPORT NEWS   PTSUNNY   81  69  67 W9        30.07F
LANGLEY AFB    MOSUNNY   81  71  73 NW13      30.07F
FORT EUSTIS    FAIR      80  72  75 W7        30.05F
WILLIAMSBURG*  FAIR      82  68  61 NW7       30.08F
HR EXEC AP*    MOCLDY    81  70  69 S8        30.08F
FRANKLIN*      PTSUNNY   78  70  76 W5        30.08F
US460-WAKEFLD  PTSUNNY   79  69  71 SW6       30.08F
$$

VAZ020-022-025-037-045-221900-
WEST CENTRAL AND SOUTHWEST VIRGINIA

CITY           SKY/WX    TMP DP  RH WIND       PRES   REMARKS
STAUNTON*      FAIR      80  66  62 S10       30.05F THUNDER
WAYNESBORO*    FAIR      79  68  67 SW7       30.07F
HOT SPRINGS VA TSTM      61  61 100 W15G22    30.17F
LYNCHBURG      PTSUNNY   81  68  64 S6        30.08F
DANVILLE       FAIR      80  71  74 VRB6      30.08F
SOUTH BOSTON*  FAIR      83  67  58 S6        30.08F
MARTINSVILLE   FAIR      83  68  59 W6        30.10F
ROANOKE        PTSUNNY   84  62  47 SW8       30.09F
BLACKSBURG     CLOUDY    76  65  68 NW5       30.15F
DUBLIN*        PTSUNNY   78  64  60 N3        30.13F
MARION*        FAIR      78  64  62 SW10G18   30.17F
HILLSVILLE*    PTSUNNY   76  63  64 S9G18     30.16F
RICHLANDS*     CLOUDY    74  26  16 S5        30.16F
WISE*          FAIR      73  61  64 SW12G18   30.17F
ABINGDON*      CLOUDY    77  63  61 W9        30.15F
$$

MDZ021>025-VAZ099-100-221900-
SOUTHERN MARYLAND AND THE DELMARVA PENINSULA

CITY           SKY/WX    TMP DP  RH WIND       PRES   REMARKS
PATUXENT RIVER PTSUNNY   80  68  66 S7        30.04F
BAY BRIDGE APT CLOUDY    72  66  83 S3        30.06F
LEONARDTOWN    PTSUNNY   77  68  73 S8        30.06F
DOVER          LGT RAIN  66  64  94 E8        30.06F
GEORGETOWN     RAIN      73  66  78 SW6       30.07F
EASTON         PTSUNNY   75  68  78 S12       30.09F
CAMBRIDGE      PTSUNNY   75  68  78 S12       30.05F
SALISBURY      PTSUNNY   79  68  69 SW10      30.06F
TANGIER        FAIR      75  72  88 S10       30.06F
OCEAN CITY     CLOUDY    69  64  84 S7        30.08F
WALLOPS ISLAND PTSUNNY   75  68  78 S7        30.08F
ACCOMACK*      PTSUNNY   80  70  71 SW7       30.07F
$$

NCZ012>017-030>032-221900-
NORTH CENTRAL AND EASTERN NORTH CAROLINA

CITY           SKY/WX    TMP DP  RH WIND       PRES   REMARKS
ROANOKE RAPIDS FAIR      81  72  74 SW6       30.09F
RALEIGH        PTSUNNY   77  68  73 W16G28    30.11F THUNDER
ELIZABETH CITY PTSUNNY   83  74  74 SW7       30.08F
AHOSKIE*       FAIR      81  73  76 S5        30.08F
EDENTON*       CLOUDY    79  70  73 E6        30.10F
CURRITUCK*     NOT AVBL
KILL DEVIL HLS FAIR      78  70  76 CALM      30.09F
MANTEO         PTSUNNY   80  71  75 W8        30.10F
CAPE HATTERAS  FAIR      80  72  76 SW9       30.13F
TARBORO*       NOT AVBL
GOLDSBORO      FAIR      85  67  55 SW9       30.09F
WASHINGTON     PTSUNNY   85  69  58 SW13      30.10F
GREENVILLE     PTSUNNY   82  70  65 SW14      30.11F
NEW BERN       FAIR      81  66  60 SW13      30.13F
WILMINGTON     FAIR      80  73  79 SE8       30.13F
$$

VAZ048-221900-
ELSEWHERE

CITY           SKY/WX    TMP DP  RH WIND       PRES   REMARKS
HARRISBURG PA  LGT RAIN  65  62  90 SE5       30.05F
BALTIMORE      CLOUDY    68  66  93 E6        30.05F
ANNAPOLIS      CLOUDY    73  66  78 S7        30.06F
ANDREWS AFB    CLOUDY    74  67  78 CALM      30.05F
PHILADELPHIA   HVY RAIN  61  58  90 N5        30.10S FOG
HENDERSON NC     N/A     80  69  70 S5        30.09F
GREENSBORO     PTSUNNY   82  68  62 SW10      30.10F
ROCKY MOUNT    FAIR      75  71  87 S6        30.11F
$$

VAZ100-221900-
MARINE

STATION/POSITION TIME  TEMP    WIND        PRES    WAVE   SWELL
                       AIR SEA DIR/SP/G            HT/PER HT/PER
                 (UTC) (F)     (DEG/KT/KT) (MB)    (FT/S) (FT/S)
BRANDYWINE LGT   1748   62     150/ 15/ 17 1018.7F
CAPE MAY NJ      1748   65 65  140/ 10/ 13 1017.8F
LEWES DE         1736   67 64  150/ 12/ 15 1018.0F
15NM E FENWICK I 1750   60 61  160/  4/  6 1019.1F   2/ 9   2/ 9
OCEAN-CITY-INLET 1736   67 62  190/  7/  9 1019.3F
WACHAPREAGUE VA  1748   72 73  190/  7/ 10 1018.6F
THOMAS POINT MD  1800   68 68  170/  8/  9 1018.5F
GOOSES REEF MD   1800   70     160/ 12/ 14 1018.8    1/ 2
COVE POINT MD    1748   68     180/ 13/ 15 1018.1F
SOLOMONS ISLAND  1748   74 69  180/  8/ 10 1017.1F
BISHOPS HEAD MD  1748   72 74  180/ 10/ 12 1018.5F
PINEY POINT MD   1748          190/  6/  7   N/A
POTOMAC MD       1800   71 71  150/  6/  8 1017.1    1/ 2
CAMBRIDGE MD     1748   75 72              1018.7F
LEWISETTA VA     1748   76 74  240/  6/  7 1017.8F
RAPPAHANNOCK LGT 1748          180/  6/  6 1019.3F
STINGRAY PT      1800   71 73  180/  8/ 10 1020.5    1
YORK RVR RNG VA  1748   75     290/  4/  4 1019.0F
YORKTOWN VA      1748   77 73  230/  7/  8 1017.7F
DOMINION TERM VA 1748   78     240/  7/  8 1018.7F
KIPTOPEKE VA     1736      71  180/  3/  4   N/A
CAPE HENRY VA    1748   71      80/  6/  7   N/A
WILLOUBY STN VA  1748          260/  3/  4   N/A
S CRANEY ISL VA  1748   79     240/  6/ 10 1018.3F
CAPE HENRY BUOY  1800      69                N/A     2/ 8
1ST LANDING BUOY 1800   70 71   90/  4/  4 1018.2    1/ 5
64NM E OF VA BCH 1750   70 69  220/  6/  8 1019.5F   3/ 8   3/ 8
DUCK PIER NC     1748   79 67  230/  9/ 12 1018.6F
44100 DUCK FRF   1745      69                N/A     3/ 8
44056 DUCK FRF   1730      71                N/A     2/ 8
OREGON INLET NC  1736   76 76  220/ 16/ 20 1019.6F
HATTERAS NC      1748   76 74  210/ 11/ 16 1020.0F
DIAMOND SHLS NC  1750   75 75  230/ 12/ 14 1021.0F   3/ 8   2/ 8
CAPE LOOKOUT NC  1800          200/ 10/ 11 1021.0F
$$




USA.gov is the U.S. government's official web portal to all federal, state and local government web resources and services.